When you browse on this site, cookies collect data to enhance your experience and personalize the content and advertising you see.
Visit our Privacy Policy to learn more. By continuing to use the site, you agree to this use of cookies and data.
  • In Hungary
  • List of Countries
  • For 7 days
  • Water Temperature
  • Satellite Maps
  • Weather Map
  • News
  • Weather Widgets
  • user-avatar
    Login

    Hourly Weather Sahryn

    Today, 16 January, Wednesday

    Time Temperature Precipitation Wind Pressure Humidity
    00:00 -4°C° 0.5 mm 4 mps 731 mmHg 94%
    01:00 -3°C° 0.5 mm 4 mps 730 mmHg 94%
    02:00 -3°C° 0.5 mm 4 mps 730 mmHg 95%
    03:00 -3°C° 0.6 mm 6 mps 729 mmHg 94%
    04:00 -1°C° 0.6 mm 8 mps 729 mmHg 94%
    05:00 0°C° 0.6 mm 10 mps 729 mmHg 93%
    06:00 0°C° 0.1 mm 10 mps 730 mmHg 92%
    07:00 -1°C° 0.1 mm 9 mps 731 mmHg 90%
    08:00 -1°C° 0.1 mm 9 mps 731 mmHg 89%
    09:00 -1°C° 0.1 mm 7 mps 732 mmHg 91%
    10:00 -1°C° 0.1 mm 6 mps 734 mmHg 92%
    11:00 -1°C° 0.1 mm 5 mps 735 mmHg 94%
    12:00 -1°C° 0 mm 4 mps 735 mmHg 96%
    13:00 -1°C° 0 mm 4 mps 735 mmHg 97%
    14:00 0°C° 0 mm 3 mps 736 mmHg 99%
    15:00 0°C° 0.1 mm 3 mps 736 mmHg 99%
    16:00 0°C° 0.1 mm 3 mps 736 mmHg 98%
    17:00 0°C° 0.1 mm 3 mps 737 mmHg 97%
    18:00 -1°C° 0.1 mm 4 mps 737 mmHg 97%
    19:00 0°C° 0.1 mm 4 mps 737 mmHg 97%
    20:00 0°C° 0.1 mm 5 mps 737 mmHg 96%
    21:00 0°C° 0 mm 5 mps 737 mmHg 96%
    22:00 0°C° 0 mm 5 mps 737 mmHg 95%
    23:00 0°C° 0 mm 5 mps 737 mmHg 95%

    Tomorrow, 17 January, Thursday

    Time Temperature Precipitation Wind Pressure Humidity
    00:00 -1°C° 0 mm 4 mps 737 mmHg 93%
    01:00 -1°C° 0 mm 4 mps 737 mmHg 92%
    02:00 -1°C° 0 mm 4 mps 737 mmHg 90%
    03:00 -1°C° 0 mm 4 mps 736 mmHg 90%
    04:00 -1°C° 0 mm 5 mps 736 mmHg 90%
    05:00 -2°C° 0 mm 5 mps 736 mmHg 89%
    06:00 -1°C° 0 mm 5 mps 735 mmHg 87%
    07:00 -2°C° 0 mm 6 mps 735 mmHg 84%
    08:00 -2°C° 0 mm 7 mps 735 mmHg 82%
    09:00 -1°C° 0 mm 7 mps 735 mmHg 81%
    10:00 -1°C° 0 mm 7 mps 735 mmHg 81%
    11:00 -1°C° 0 mm 8 mps 735 mmHg 80%
    12:00 -1°C° 0 mm 7 mps 735 mmHg 81%
    13:00 0°C° 0 mm 7 mps 735 mmHg 82%
    14:00 0°C° 0 mm 7 mps 735 mmHg 83%
    15:00 0°C° 0 mm 7 mps 735 mmHg 83%
    16:00 -1°C° 0 mm 6 mps 735 mmHg 84%
    17:00 -1°C° 0 mm 6 mps 735 mmHg 84%
    18:00 -1°C° 0 mm 6 mps 735 mmHg 85%
    19:00 -1°C° 0 mm 6 mps 735 mmHg 85%
    20:00 -2°C° 0 mm 6 mps 735 mmHg 85%
    21:00 -1°C° 0.1 mm 6 mps 735 mmHg 86%
    22:00 -1°C° 0.1 mm 6 mps 735 mmHg 87%
    23:00 -1°C° 0.1 mm 6 mps 735 mmHg 88%

    Day after tomorrow, 18 January, Friday

    Time Temperature Precipitation Wind Pressure Humidity
    00:00 -1°C° 0.1 mm 6 mps 735 mmHg 88%
    01:00 0°C° 0.1 mm 5 mps 735 mmHg 88%
    02:00 0°C° 0.1 mm 5 mps 734 mmHg 88%
    03:00 0°C° 0 mm 5 mps 734 mmHg 88%
    04:00 0°C° 0 mm 5 mps 734 mmHg 87%
    05:00 0°C° 0 mm 5 mps 734 mmHg 87%
    06:00 0°C° 0.2 mm 5 mps 735 mmHg 87%
    07:00 -1°C° 0.2 mm 5 mps 735 mmHg 88%
    08:00 -1°C° 0.2 mm 5 mps 735 mmHg 88%
    09:00 -2°C° 0 mm 6 mps 736 mmHg 83%
    10:00 -2°C° 0 mm 6 mps 736 mmHg 78%
    11:00 -3°C° 0 mm 6 mps 737 mmHg 74%
    12:00 -2°C° 0 mm 7 mps 737 mmHg 72%
    13:00 -2°C° 0 mm 8 mps 738 mmHg 70%
    14:00 -2°C° 0 mm 8 mps 738 mmHg 69%
    15:00 -3°C° 0 mm 7 mps 739 mmHg 71%
    16:00 -3°C° 0 mm 7 mps 739 mmHg 72%
    17:00 -4°C° 0 mm 6 mps 740 mmHg 74%
    18:00 -4°C° 0 mm 6 mps 741 mmHg 78%
    19:00 -4°C° 0 mm 6 mps 741 mmHg 82%
    20:00 -4°C° 0 mm 5 mps 742 mmHg 85%
    21:00 -4°C° 0.1 mm 5 mps 743 mmHg 85%
    22:00 -4°C° 0.1 mm 4 mps 744 mmHg 85%
    23:00 -4°C° 0.1 mm 4 mps 744 mmHg 84%

    19 January, Saturday

    Time Temperature Precipitation Wind Pressure Humidity
    00:00 -4°C° 0 mm 4 mps 745 mmHg 84%
    01:00 -5°C° 0 mm 3 mps 745 mmHg 84%
    02:00 -5°C° 0 mm 3 mps 746 mmHg 84%
    03:00 -5°C° 0 mm 3 mps 746 mmHg 84%
    04:00 -5°C° 0 mm 3 mps 746 mmHg 84%
    05:00 -6°C° 0 mm 3 mps 746 mmHg 84%
    06:00 -6°C° 0 mm 3 mps 746 mmHg 85%
    07:00 -5°C° 0 mm 2 mps 747 mmHg 86%
    08:00 -5°C° 0 mm 2 mps 747 mmHg 87%
    09:00 -4°C° 0 mm 2 mps 747 mmHg 84%
    10:00 -4°C° 0 mm 2 mps 747 mmHg 82%
    11:00 -4°C° 0 mm 2 mps 748 mmHg 79%
    12:00 -3°C° 0 mm 2 mps 748 mmHg 77%
    13:00 -1°C° 0 mm 1 mps 747 mmHg 74%
    14:00 0°C° 0 mm 1 mps 747 mmHg 71%
    15:00 -1°C° 0 mm 1 mps 747 mmHg 74%
    16:00 -1°C° 0 mm 1 mps 747 mmHg 77%
    17:00 -2°C° 0 mm 1 mps 747 mmHg 79%
    18:00 -2°C° 0 mm 1 mps 747 mmHg 80%
    19:00 -2°C° 0 mm 1 mps 747 mmHg 82%
    20:00 -3°C° 0 mm 1 mps 747 mmHg 83%
    21:00 -3°C° 0 mm 1 mps 747 mmHg 84%
    22:00 -3°C° 0 mm 1 mps 747 mmHg 85%
    23:00 -3°C° 0 mm 1 mps 746 mmHg 86%

    20 January, Sunday

    Time Temperature Precipitation Wind Pressure Humidity
    00:00 -4°C° 0 mm 1 mps 746 mmHg 86%
    01:00 -4°C° 0 mm 1 mps 746 mmHg 85%
    02:00 -4°C° 0 mm 1 mps 746 mmHg 84%
    03:00 -4°C° 0 mm 1 mps 746 mmHg 83%
    04:00 -5°C° 0 mm 0 mps 746 mmHg 82%
    05:00 -5°C° 0 mm 0 mps 745 mmHg 81%
    06:00 -6°C° 0 mm 0 mps 745 mmHg 80%
    07:00 -6°C° 0 mm 0 mps 746 mmHg 79%
    08:00 -6°C° 0 mm 1 mps 746 mmHg 78%
    09:00 -4°C° 0 mm 1 mps 746 mmHg 77%
    10:00 -3°C° 0 mm 1 mps 746 mmHg 75%
    11:00 -5°C° 0 mm 2 mps 747 mmHg 73%
    12:00 -4°C° 0 mm 2 mps 747 mmHg 73%
    13:00 -5°C° 0 mm 3 mps 747 mmHg 73%
    14:00 -4°C° 0 mm 3 mps 747 mmHg 73%
    15:00 -5°C° 0 mm 3 mps 747 mmHg 78%
    16:00 -5°C° 0 mm 3 mps 747 mmHg 83%
    17:00 -6°C° 0 mm 3 mps 747 mmHg 88%
    18:00 -6°C° 0 mm 3 mps 747 mmHg 88%
    19:00 -6°C° 0 mm 3 mps 748 mmHg 87%
    20:00 -7°C° 0 mm 4 mps 748 mmHg 87%
    21:00 -7°C° 0 mm 4 mps 748 mmHg 86%
    22:00 -7°C° 0 mm 4 mps 748 mmHg 85%
    23:00 -7°C° 0 mm 5 mps 749 mmHg 84%

    21 January, Monday

    Time Temperature Precipitation Wind Pressure Humidity
    00:00 -7°C° 0 mm 5 mps 749 mmHg 84%
    01:00 -7°C° 0 mm 5 mps 749 mmHg 85%
    02:00 -7°C° 0 mm 5 mps 749 mmHg 85%
    03:00 -8°C° 0 mm 4 mps 750 mmHg 86%
    04:00 -8°C° 0 mm 4 mps 750 mmHg 87%
    05:00 -8°C° 0 mm 4 mps 750 mmHg 88%
    06:00 -7°C° 0 mm 3 mps 751 mmHg 89%
    07:00 -7°C° 0 mm 3 mps 751 mmHg 90%
    08:00 -8°C° 0 mm 3 mps 751 mmHg 91%
    09:00 -7°C° 0 mm 3 mps 752 mmHg 89%
    10:00 -6°C° 0 mm 3 mps 752 mmHg 87%
    11:00 -6°C° 0 mm 3 mps 753 mmHg 84%
    12:00 -5°C° 0 mm 3 mps 753 mmHg 82%
    13:00 -4°C° 0 mm 3 mps 753 mmHg 80%
    14:00 -4°C° 0 mm 3 mps 753 mmHg 78%
    15:00 -4°C° 0 mm 3 mps 752 mmHg 80%
    16:00 -5°C° 0 mm 3 mps 752 mmHg 81%
    17:00 -5°C° 0 mm 3 mps 752 mmHg 83%
    18:00 -5°C° 0 mm 3 mps 752 mmHg 82%
    19:00 -7°C° 0 mm 4 mps 752 mmHg 81%
    20:00 -7°C° 0 mm 4 mps 752 mmHg 80%
    21:00 -7°C° 0 mm 4 mps 752 mmHg 79%
    22:00 -7°C° 0 mm 4 mps 752 mmHg 78%
    23:00 -7°C° 0 mm 4 mps 751 mmHg 77%
    Show more